User: anonymous   Login
Location: Unspecified
(0.0000°N, 0.0000°E)
Time: 09:23:48
(UTC+00:00)
Language:

TIMED - Orbit

View from above orbital plane
View from above orbital plane
View from above satellite
View from above satellite

Ground track
Ground track

The orbit data is extracted from the following two-line orbital elements,

1 26998U 01055B   18018.63727345 +.00000100 +00000-0 +14946-4 0  9999
2 26998 074.0711 246.3894 0002050 239.0614 121.0365 14.87983854873478
Epoch (UTC): 18 January 2018 15:17:40
Eccentricity: 0.0002050
inclination: 74.0711°
perigee height: 603 km
apogee height: 605 km
right ascension of ascending node: 246.3894°
argument of perigee: 239.0614°
revolutions per day: 14.87983854
mean anomaly at epoch: 121.0365°
orbit number at epoch: 87347

The dashed part of the orbit path shows where the satellite is in the earth's shadow,  

DLR